Date,TemperatureHighF,TemperatureAvgF,TemperatureLowF,DewpointHighF,DewpointAvgF,DewpointLowF,HumidityHigh,HumidityAvg,HumidityLow,PressureMaxIn,PressureMinIn,WindSpeedMaxMPH,WindSpeedAvgMPH,GustSpeedMaxMPH,PrecipitationSumIn
2013-1-1,41,38,33,29,27,23,78,67,56,30.03,29.92,27,2,27,0.00
2013-1-2,34,30,24,27,18,12,74,63,46,30.24,30.00,26,5,26,0.00
2013-1-3,37,28,15,20,16,11,86,64,46,30.26,30.14,14,2,22,0.00
2013-1-4,40,35,32,23,20,19,60,55,47,30.21,30.11,36,11,37,0.00
2013-1-5,43,36,29,24,21,18,71,56,43,30.38,30.15,16,2,20,0.00
2013-1-6,46,39,26,30,27,22,87,63,47,30.17,30.02,17,2,20,0.00
2013-1-7,43,36,21,30,25,18,86,63,48,30.44,30.15,27,6,27,0.00
2013-1-8,53,32,19,33,24,16,92,75,42,30.41,30.34,10,1,15,0.00
2013-1-9,51,36,22,40,30,19,93,81,51,30.40,30.23,16,1,20,0.00
2013-1-10,51,43,34,32,29,24,80,57,43,30.60,30.38,27,4,27,0.00
2013-1-11,46,42,39,41,34,27,100,75,58,30.47,30.09,18,6,23,0.04
2013-1-12,58,47,40,49,44,40,100,90,70,30.17,30.08,14,2,20,0.00
2013-1-13,57,51,44,55,49,43,100,92,83,30.08,29.91,17,5,23,0.00
2013-1-14,53,48,38,53,43,33,100,81,56,30.32,29.92,24,5,28,0.17
2013-1-15,40,38,34,38,35,32,99,90,78,30.35,30.16,10,1,12,0.42
2013-1-16,38,36,33,38,35,33,100,99,93,30.16,29.85,20,1,22,0.61
2013-1-17,43,38,34,39,30,25,100,72,49,30.14,29.98,20,3,22,0.00
2013-1-18,37,32,28,28,17,6,78,53,30,30.50,30.06,34,8,34,0.00
2013-1-19,59,40,23,30,24,18,84,57,25,30.37,29.91,25,5,28,0.00
2013-1-20,54,41,29,31,19,6,74,45,18,30.09,29.82,39,9,50,0.00
2013-1-21,42,31,23,22,16,8,75,54,36,30.09,29.79,39,8,41,0.00
2013-1-22,26,17,12,7,-3,-8,56,40,28,30.28,29.95,40,16,40,0.00
2013-1-23,24,17,7,11,0,-5,70,47,28,30.33,30.11,30,5,38,0.00
2013-1-24,25,19,15,14,6,-4,85,60,37,30.51,30.07,39,7,39,0.03
2013-1-25,21,17,9,15,8,-2,85,67,44,30.51,30.04,20,1,25,0.04
2013-1-26,31,24,17,24,19,13,87,82,69,30.42,30.06,9,0,12,0.00
2013-1-27,35,26,15,22,17,11,84,69,50,30.58,30.42,14,1,14,0.00
2013-1-28,40,35,31,39,31,22,94,86,66,30.42,30.01,12,3,16,0.12
2013-1-29,70,57,40,54,48,39,94,76,57,30.07,29.88,19,4,26,0.00
2013-1-30,70,59,55,60,55,49,100,86,70,29.89,29.16,42,9,54,1.48
2013-1-31,55,38,27,55,25,9,100,59,40,29.88,29.13,53,18,58,0.25
2013-2-1,29,23,16,23,9,1,90,56,41,30.37,29.80,35,12,39,0.01
2013-2-2,28,20,11,22,11,2,84,67,51,30.38,29.99,15,2,20,0.00
2013-2-3,34,28,21,28,23,15,91,82,59,29.99,29.79,27,3,30,0.00
2013-2-4,37,30,23,24,15,10,70,54,42,30.08,29.84,29,6,29,0.00
2013-2-5,38,33,30,32,29,23,92,84,70,29.91,29.82,7,0,9,0.00
2013-2-6,42,35,24,32,26,17,95,73,55,30.33,29.90,28,4,28,0.00
2013-2-7,39,32,22,27,22,17,87,69,53,30.40,30.17,16,3,20,0.00
2013-2-8,40,35,32,36,29,20,91,78,59,30.17,29.76,45,8,45,0.01
2013-2-9,40,31,22,22,17,12,71,55,35,30.38,29.93,44,16,44,0.00
2013-2-10,45,32,14,24,16,10,88,57,28,30.44,30.16,22,5,26,0.00
2013-2-11,63,48,35,48,36,20,94,70,21,30.16,29.63,29,9,38,0.14
2013-2-12,55,46,31,30,26,21,77,46,28,29.96,29.80,32,11,34,0.00
2013-2-13,41,34,24,32,27,20,95,79,59,29.92,29.64,15,1,15,0.08
2013-2-14,50,37,28,34,29,23,100,74,45,29.98,29.75,16,2,23,0.00
2013-2-15,53,39,27,36,31,22,94,74,47,30.00,29.89,26,2,26,0.10
2013-2-16,36,33,28,33,25,14,99,75,49,29.97,29.84,26,6,26,0.00
2013-2-17,30,25,22,16,10,4,68,53,37,30.20,29.84,35,14,38,0.00
2013-2-18,39,25,15,19,8,4,65,50,32,30.36,30.07,22,4,26,0.00
2013-2-19,49,40,34,40,27,17,84,60,45,30.07,29.63,28,7,30,0.02
2013-2-20,36,29,24,19,12,6,53,48,43,30.16,29.83,39,18,40,0.00
2013-2-21,37,28,23,16,13,8,73,53,40,30.32,30.11,33,10,33,0.00
2013-2-22,32,29,24,28,22,16,86,76,62,30.36,30.16,14,3,18,0.00
2013-2-23,46,37,32,39,33,28,94,87,77,30.16,29.80,13,1,14,0.00
2013-2-24,48,38,26,39,28,16,100,69,40,30.11,29.77,34,9,34,0.00
2013-2-25,46,32,18,24,20,14,87,63,37,30.20,30.10,9,1,10,0.00
2013-2-26,41,34,23,39,30,18,98,83,67,30.18,29.60,24,4,32,0.65
2013-2-27,54,43,36,41,35,31,100,77,45,29.66,29.53,30,6,33,0.02
2013-2-28,43,40,32,35,28,24,85,63,50,29.70,29.60,26,7,30,0.00
2013-3-1,42,38,32,30,26,21,69,63,51,29.88,29.70,29,12,30,0.00
2013-3-2,36,32,29,25,21,19,73,65,56,29.88,29.81,25,11,26,0.00
2013-3-3,41,32,27,21,18,15,73,56,39,29.92,29.79,29,12,34,0.00
2013-3-4,42,32,24,18,15,11,68,50,34,30.02,29.92,31,12,33,0.00
2013-3-5,49,35,20,29,18,9,84,54,22,30.06,29.78,22,3,27,0.00
2013-3-6,40,35,32,35,31,28,100,87,66,30.00,29.64,36,8,38,0.32
2013-3-7,46,40,35,31,28,24,73,62,48,30.15,30.00,31,12,32,0.00
2013-3-8,47,40,35,29,26,23,71,58,45,30.29,30.13,38,15,43,0.00
2013-3-9,60,39,23,29,24,20,89,60,23,30.36,30.22,15,2,16,0.00
2013-3-10,64,45,24,34,25,20,92,53,24,30.28,30.14,21,5,24,0.00
2013-3-11,60,51,42,48,39,24,85,65,35,30.15,29.80,28,10,33,0.00
2013-3-12,57,50,40,53,42,27,96,73,54,29.94,29.70,31,12,33,0.67
2013-3-13,46,38,28,31,23,14,82,57,30,30.04,29.88,38,11,38,0.00
2013-3-14,43,36,30,20,16,12,61,44,32,30.13,30.02,38,17,45,0.00
2013-3-15,57,43,27,34,24,17,71,49,32,30.07,29.74,24,6,27,0.00
2013-3-16,52,42,36,37,34,30,87,73,56,29.90,29.60,20,4,21,0.00
2013-3-17,40,37,35,33,27,21,87,69,51,30.23,29.89,20,3,23,0.00
2013-3-18,37,33,30,32,27,20,96,81,53,30.28,29.87,19,2,23,0.22
2013-3-19,56,41,32,43,27,7,100,68,17,29.89,29.69,43,8,44,0.00
2013-3-20,50,41,32,28,15,10,74,37,22,29.95,29.73,32,12,32,0.00
2013-3-21,35,30,25,28,13,6,74,49,33,29.88,29.76,31,11,36,0.00
2013-3-22,44,34,24,20,16,10,63,48,33,29.98,29.86,30,9,30,0.00
2013-3-23,52,37,19,26,21,15,86,55,29,30.00,29.88,25,5,27,0.00
2013-3-24,41,33,24,31,24,18,94,71,47,29.98,29.60,11,1,15,0.02
2013-3-25,36,34,32,33,32,30,96,93,87,29.68,29.50,10,1,10,0.35
2013-3-26,48,38,28,35,30,24,98,73,40,29.99,29.68,28,6,30,0.01
2013-3-27,48,41,34,31,27,22,76,59,38,30.10,29.98,35,9,43,0.00
2013-3-28,47,40,32,32,29,24,76,64,52,30.20,30.06,29,9,32,0.00
2013-3-29,56,44,35,35,30,23,80,58,31,30.23,30.10,21,3,24,0.00
2013-3-30,59,41,25,33,25,17,91,59,20,30.22,30.06,19,2,23,0.00
2013-3-31,49,44,32,47,37,25,95,77,50,30.06,29.71,16,2,18,0.08
2013-4-1,58,45,34,45,33,16,98,69,38,29.97,29.72,36,8,38,0.00
2013-4-2,46,35,25,20,16,10,76,48,24,30.16,29.97,30,7,34,0.00
2013-4-3,49,35,21,21,16,10,81,51,23,30.38,30.15,35,9,35,0.00
2013-4-4,49,35,18,24,15,10,81,47,24,30.39,30.01,21,4,21,0.00
2013-4-5,64,48,32,36,28,16,90,51,25,30.04,29.79,30,8,30,0.00
2013-4-6,56,45,31,27,21,17,67,41,23,30.29,30.03,23,5,23,0.00
2013-4-7,71,56,41,44,34,21,60,45,33,30.19,29.90,28,11,32,0.00
2013-4-8,79,67,47,50,45,40,83,47,27,30.03,29.87,20,4,23,0.00
2013-4-9,85,70,54,57,51,46,76,53,31,30.03,29.85,20,3,23,0.00
2013-4-10,89,74,56,59,54,49,78,52,29,29.92,29.70,25,4,28,0.00
2013-4-11,84,69,53,60,55,50,92,64,37,29.84,29.66,22,4,33,0.00
2013-4-12,71,57,50,62,54,41,98,89,71,29.76,29.52,23,7,28,0.58
2013-4-13,68,54,39,42,35,26,92,53,24,29.93,29.76,25,6,26,0.00
2013-4-14,66,53,35,40,35,31,89,54,31,30.12,29.93,18,3,20,0.00
2013-4-15,65,59,54,52,46,37,71,63,44,30.22,30.06,18,5,21,0.00
2013-4-16,75,64,55,60,54,47,86,72,57,30.23,30.04,25,9,33,0.00
2013-4-17,71,64,55,65,58,53,100,82,66,30.17,30.07,16,3,20,0.15
2013-4-18,76,66,58,66,58,54,95,77,54,30.17,29.91,19,6,26,0.04
2013-4-19,75,66,53,65,57,36,92,74,52,29.91,29.52,34,13,40,0.52
2013-4-20,57,50,41,37,29,24,57,44,30,30.33,29.76,31,12,32,0.00
2013-4-21,54,42,31,31,26,22,78,55,33,30.57,30.33,16,3,22,0.00
2013-4-22,57,46,33,38,33,28,88,61,41,30.54,30.35,16,3,20,0.00
2013-4-23,59,46,36,45,38,32,90,73,56,30.38,30.07,11,1,15,0.00
2013-4-24,77,59,40,59,49,37,93,72,43,30.07,29.69,32,7,38,0.05
2013-4-25,64,51,39,42,34,28,79,54,27,30.28,30.00,35,6,44,0.00
2013-4-26,63,48,33,41,35,30,93,64,32,30.44,30.27,35,2,35,0.00
2013-4-27,71,54,33,46,38,31,95,61,31,30.38,30.21,15,2,21,0.00
2013-4-28,60,55,52,48,43,35,84,64,43,30.23,30.08,22,4,26,0.07
2013-4-29,61,56,53,58,53,48,97,90,74,30.09,29.99,13,2,16,0.14
2013-4-30,60,56,54,57,54,52,97,91,86,30.25,30.06,10,1,14,0.03
2013-5-1,70,60,50,52,42,31,96,57,27,30.38,30.25,13,2,15,0.00
2013-5-2,70,55,37,50,44,35,96,68,36,30.40,30.28,13,2,18,0.00
2013-5-3,68,55,39,50,44,37,96,69,39,30.35,30.23,17,3,21,0.00
2013-5-4,69,55,38,48,42,36,94,65,38,30.30,30.13,15,2,21,0.00
2013-5-5,64,52,40,46,41,36,92,68,43,30.21,30.09,13,2,20,0.00
2013-5-6,61,54,43,57,49,38,92,84,78,30.15,30.01,14,3,16,0.03
2013-5-7,63,60,58,60,58,56,98,91,88,30.02,29.89,18,5,24,0.59
2013-5-8,68,60,51,61,54,50,99,83,62,29.96,29.88,12,1,16,0.17
2013-5-9,75,59,48,60,54,47,99,84,50,29.97,29.87,20,2,20,0.25
2013-5-10,82,63,48,65,57,47,100,82,42,29.98,29.81,26,2,29,0.66
2013-5-11,76,66,59,66,60,51,100,84,56,29.84,29.68,16,3,23,0.57
2013-5-12,60,55,40,53,37,26,87,52,30,30.01,29.72,28,9,32,0.00
2013-5-13,58,47,35,34,29,21,89,52,26,30.15,30.00,26,6,33,0.00
2013-5-14,64,48,28,40,34,27,96,64,33,30.20,29.98,11,2,15,0.00
2013-5-15,87,67,51,66,51,38,73,57,34,29.98,29.62,19,2,21,0.00
2013-5-16,78,72,61,64,58,52,82,60,45,29.91,29.70,18,4,24,0.03
2013-5-17,82,68,51,63,55,48,99,68,38,30.07,29.91,12,1,16,0.00
2013-5-18,70,63,59,58,55,48,91,76,47,30.18,30.06,13,4,18,0.00
2013-5-19,73,62,58,65,60,56,98,91,75,30.17,30.04,10,1,15,0.00
2013-5-20,73,69,65,66,65,64,96,86,78,30.06,29.92,15,0,18,0.02
2013-5-21,86,74,62,72,67,62,99,79,57,29.95,29.80,14,2,18,0.00
2013-5-22,70,67,66,67,65,64,97,93,88,29.89,29.80,18,2,21,0.48
2013-5-23,78,69,64,68,65,62,99,89,65,29.85,29.69,14,2,16,0.23
2013-5-24,64,55,45,63,45,30,98,71,50,30.17,29.70,36,15,39,0.02
2013-5-25,65,53,42,40,34,30,70,50,32,30.19,30.07,36,12,39,0.00
2013-5-26,71,56,40,44,38,34,88,53,27,30.20,30.10,25,6,27,0.00
2013-5-27,67,55,38,54,44,37,98,72,37,30.26,30.15,10,1,15,0.00
2013-5-28,79,65,53,68,58,49,93,79,64,30.15,30.00,10,1,14,0.24
2013-5-29,88,74,59,68,63,58,99,72,38,30.07,30.01,19,3,21,0.00
2013-5-30,90,76,61,71,65,60,98,72,40,30.15,30.04,11,1,18,0.00
2013-5-31,88,76,60,68,63,57,99,69,38,30.10,29.95,16,3,20,0.00
2013-6-1,89,78,64,69,65,61,94,67,47,29.99,29.83,18,4,21,0.00
2013-6-2,82,74,66,72,66,61,94,79,62,29.84,29.78,18,2,24,0.64
2013-6-3,77,71,63,68,63,53,100,79,58,29.94,29.80,22,4,29,0.22
2013-6-4,75,63,52,55,49,44,92,62,35,30.10,29.94,16,2,20,0.00
2013-6-5,78,66,50,59,55,49,100,72,46,30.14,29.98,16,3,21,0.00
2013-6-6,69,65,62,64,58,47,97,79,56,30.00,29.81,15,3,21,0.69
2013-6-7,69,66,64,68,65,62,100,98,94,29.81,29.60,17,2,20,0.39
2013-6-8,78,69,62,64,61,58,95,78,56,30.06,29.70,18,2,20,0.00
2013-6-9,80,69,58,69,63,57,99,83,62,30.16,30.04,11,1,16,0.01
2013-6-10,81,71,67,74,69,63,99,94,73,30.05,29.73,23,3,32,1.37
2013-6-11,79,72,64,68,65,62,100,80,60,29.81,29.74,22,4,23,0.01
2013-6-12,88,76,64,72,66,62,94,74,48,29.83,29.73,19,3,23,0.00
2013-6-13,84,72,67,70,65,54,99,80,58,29.74,29.44,29,7,33,0.39
2013-6-14,78,68,60,58,54,51,87,62,41,29.96,29.59,24,8,29,0.00
2013-6-15,81,68,54,63,56,47,98,69,31,30.05,29.95,19,2,20,0.00
2013-6-16,80,71,60,66,62,57,95,74,56,29.99,29.84,19,4,24,0.00
2013-6-17,85,74,62,70,66,60,96,77,47,29.92,29.83,13,2,16,0.00
2013-6-18,73,70,65,70,67,64,96,91,83,29.87,29.76,10,1,10,0.71
2013-6-19,77,68,60,65,62,58,99,82,54,30.10,29.85,11,1,12,0.11
2013-6-20,79,69,57,68,61,54,100,78,57,30.22,30.10,20,3,21,0.00
2013-6-21,82,72,57,64,57,50,93,62,45,30.24,30.17,14,2,21,0.00
2013-6-22,86,74,59,70,64,56,99,72,50,30.20,30.06,13,2,16,0.00
2013-6-23,86,76,66,72,68,63,99,78,50,30.14,30.01,12,1,15,0.00
2013-6-24,90,76,68,74,69,63,95,80,43,30.09,29.98,28,2,33,0.12
2013-6-25,90,78,67,73,69,61,98,75,50,29.99,29.83,39,3,39,0.15
2013-6-26,89,74,64,74,68,64,100,82,49,29.89,29.77,14,2,18,0.01
2013-6-27,81,73,68,72,68,66,97,85,65,29.78,29.56,19,3,23,0.00
2013-6-28,87,75,67,71,66,60,92,74,52,29.58,29.43,23,3,24,0.00
2013-6-29,86,74,64,67,64,58,97,72,42,29.69,29.47,20,2,23,0.06
2013-6-30,86,75,66,74,70,66,100,85,61,29.79,29.65,14,1,20,0.01
2013-7-1,83,76,71,72,69,67,92,80,67,29.92,29.77,15,3,21,0.00
2013-7-2,83,77,73,73,70,69,90,81,68,30.10,29.92,20,5,26,0.00
2013-7-3,84,77,73,74,71,68,93,83,68,30.17,30.08,17,3,21,0.02
2013-7-4,88,80,71,75,71,69,95,76,61,30.19,30.10,18,4,23,0.00
2013-7-5,88,80,69,74,71,68,98,74,57,30.16,30.05,18,4,28,0.00
2013-7-6,90,81,69,75,71,68,96,72,53,30.15,30.00,16,2,21,0.00
2013-7-7,89,77,70,74,70,67,96,81,58,30.05,29.94,37,1,43,0.59
2013-7-8,84,74,72,72,71,62,96,91,58,30.08,29.99,4,0,8,0.40
2013-7-9,84,76,70,70,67,64,87,75,53,30.12,29.99,13,1,15,67.65
2013-7-10,79,76,72,72,70,67,87,81,77,30.00,29.86,7,0,8,0.01
2013-7-11,83,77,71,69,65,62,88,68,49,29.94,29.87,13,2,16,0.01
2013-7-12,75,70,65,65,63,61,91,79,67,30.06,29.91,13,1,18,0.56
2013-7-13,83,74,68,70,66,63,91,77,57,30.26,30.06,10,1,15,0.03
2013-7-14,88,79,70,72,69,65,91,72,48,30.33,30.26,17,2,20,0.05
2013-7-15,92,80,67,72,68,64,92,70,40,30.32,30.19,10,1,14,0.00
2013-7-16,92,81,73,72,69,61,90,69,36,30.27,30.18,12,1,18,0.00
2013-7-17,94,82,71,73,69,60,90,68,34,30.24,30.09,11,1,14,0.00
2013-7-18,94,83,72,74,71,68,91,70,45,30.13,30.00,8,1,10,0.00
2013-7-19,94,82,74,75,70,65,86,69,40,30.01,29.86,20,2,24,0.02
2013-7-20,92,80,72,70,67,61,84,65,40,29.90,29.79,16,3,22,0.01
2013-7-21,85,75,68,70,67,64,89,76,54,29.95,29.88,15,1,23,0.01
2013-7-22,87,75,68,73,68,65,92,81,52,29.94,29.76,17,1,21,0.99
2013-7-23,86,76,70,73,66,59,92,75,42,29.77,29.66,20,3,23,0.09
2013-7-24,80,73,60,65,59,52,89,65,41,29.95,29.70,19,4,23,0.00
2013-7-25,77,65,55,56,53,49,87,68,41,30.06,29.94,14,2,15,0.00
2013-7-26,81,68,54,59,55,51,92,68,36,30.13,30.02,11,1,16,0.00
2013-7-27,81,71,60,69,63,56,91,75,56,30.05,29.91,14,2,18,0.00
2013-7-28,83,74,63,68,64,58,86,73,48,30.01,29.87,23,1,23,0.03
2013-7-29,80,68,54,60,53,45,91,62,31,30.18,30.01,15,2,16,0.01
2013-7-30,81,68,54,61,56,50,92,68,35,30.25,30.14,15,1,20,0.00
2013-7-31,79,69,59,65,62,57,92,79,56,30.16,30.00,14,1,18,0.10
2013-8-1,83,73,67,68,65,63,92,79,53,30.00,29.81,15,1,15,0.30
2013-8-2,85,72,61,66,59,49,92,68,29,29.97,29.88,17,2,20,0.01
2013-8-3,72,67,62,66,62,58,91,83,72,29.99,29.93,14,1,21,0.20
2013-8-4,79,68,57,63,55,45,92,67,33,30.06,29.95,26,4,26,0.01
2013-8-5,80,66,52,59,53,47,92,67,32,30.13,30.01,11,1,12,0.00
2013-8-6,78,69,62,66,61,54,91,77,62,30.07,30.00,9,1,14,0.57
2013-8-7,84,74,69,70,66,64,90,78,57,30.06,29.96,17,2,23,0.32
2013-8-8,82,75,68,73,69,65,92,83,65,30.02,29.95,13,1,15,0.09
2013-8-9,85,78,73,74,70,67,90,77,57,29.98,29.86,17,2,22,0.08
2013-8-10,83,74,67,67,63,53,91,72,38,30.09,29.96,8,0,9,0.01
2013-8-11,84,74,64,68,64,61,92,73,47,30.12,29.99,10,1,15,0.00
2013-8-12,86,75,64,70,65,61,92,73,45,30.03,29.90,11,1,15,0.00
2013-8-13,84,74,68,68,65,54,90,73,48,29.90,29.74,18,3,18,0.31
2013-8-14,72,64,53,54,47,44,85,56,39,30.13,29.86,26,7,30,0.00
2013-8-15,76,61,46,56,47,38,92,66,27,30.22,30.11,9,1,14,0.00
2013-8-16,79,63,48,58,50,46,92,69,33,30.20,30.14,11,1,11,0.01
2013-8-17,79,65,49,58,54,47,92,68,42,30.28,30.20,10,1,15,0.00
2013-8-18,69,65,60,62,58,54,90,80,59,30.27,30.19,12,1,16,0.09
2013-8-19,78,66,57,65,60,54,92,83,62,30.19,30.06,8,0,9,0.00
2013-8-20,85,71,60,69,62,56,92,76,39,30.19,30.10,7,0,9,0.01
2013-8-21,87,73,61,70,64,58,92,75,45,30.21,30.06,16,1,16,0.00
2013-8-22,86,75,67,66,64,61,89,69,45,30.09,29.93,17,2,20,0.00
2013-8-23,73,68,60,67,64,58,91,86,72,30.15,29.95,4,0,8,0.45
2013-8-24,80,66,57,64,57,52,92,75,40,30.34,30.14,9,0,10,0.01
2013-8-25,82,67,53,63,56,50,92,71,37,30.42,30.26,12,1,14,0.00
2013-8-26,86,72,59,62,59,55,90,65,37,30.28,30.01,14,2,16,0.00
2013-8-27,87,77,69,71,65,60,77,67,51,30.00,29.88,15,2,20,0.01
2013-8-28,75,72,70,72,68,64,92,88,73,29.93,29.82,11,1,14,0.63
2013-8-29,84,74,66,70,67,63,92,79,51,30.02,29.85,10,0,14,0.00
2013-8-30,86,74,63,68,65,61,92,74,46,30.04,29.86,21,2,21,0.00
2013-8-31,88,77,68,71,67,64,91,75,45,29.88,29.78,18,2,21,0.74
2013-9-1,89,76,66,73,67,62,92,75,46,29.85,29.75,21,1,23,0.01
2013-9-2,90,78,69,71,67,61,92,73,41,29.81,29.71,11,1,14,0.11
2013-9-3,81,73,62,69,58,49,88,62,33,29.99,29.73,24,4,27,0.00
2013-9-4,82,66,52,57,51,40,92,65,27,30.11,30.00,11,1,15,0.00
2013-9-5,80,66,54,60,53,45,91,67,36,30.15,30.03,21,4,26,0.00
2013-9-6,73,59,46,52,46,36,92,66,27,30.29,30.15,11,1,15,0.00
2013-9-7,82,62,45,56,50,36,92,69,21,30.16,29.94,9,1,10,0.01
2013-9-8,84,71,57,64,59,53,89,69,46,30.06,29.89,15,2,20,0.00
2013-9-9,78,67,57,62,54,45,76,63,48,30.22,30.06,12,1,20,0.00
2013-9-10,91,77,64,68,65,59,91,69,43,30.17,30.07,16,2,20,0.00
2013-9-11,93,80,71,71,68,64,88,69,42,30.15,29.99,16,2,18,0.00
2013-9-12,92,77,67,70,64,56,91,67,33,30.00,29.72,24,3,24,0.00
2013-9-13,76,67,56,62,52,44,82,60,33,29.97,29.71,32,7,33,0.00
2013-9-14,67,55,42,48,41,37,90,63,36,30.19,29.97,20,3,23,0.00
2013-9-15,77,59,42,55,46,38,92,67,35,30.25,30.08,15,2,20,0.00
2013-9-16,72,62,52,57,53,49,89,75,46,30.26,30.03,17,2,27,0.10
2013-9-17,69,54,42,51,41,29,91,66,25,30.45,30.26,10,1,16,0.01
2013-9-18,72,53,36,48,41,33,91,69,34,30.35,30.19,14,1,15,0.00
2013-9-19,77,59,44,55,49,41,91,71,41,30.20,30.07,12,1,20,0.00
2013-9-20,81,65,49,61,54,47,92,71,45,30.09,29.94,15,2,20,0.00
2013-9-21,69,64,59,63,59,56,91,82,70,29.95,29.68,22,4,29,0.51
2013-9-22,72,59,48,58,48,42,92,70,40,29.98,29.74,21,3,26,0.01
2013-9-23,65,55,42,48,41,37,87,60,39,30.12,29.98,18,3,21,0.00
2013-9-24,72,51,36,49,41,33,92,71,31,30.16,29.97,11,1,14,0.00
2013-9-25,75,54,40,55,43,36,92,71,27,30.03,29.90,9,0,12,0.01
2013-9-26,75,56,43,53,45,40,92,72,32,30.09,29.95,7,0,9,0.00
2013-9-27,74,57,45,55,49,42,92,77,44,30.24,30.09,8,0,8,0.00
2013-9-28,67,58,46,54,50,43,91,76,48,30.33,30.23,6,0,9,0.00
2013-9-29,74,55,44,58,46,40,92,76,30,30.23,30.07,12,0,20,0.01
2013-9-30,76,58,44,53,47,41,92,71,35,30.11,29.98,14,1,14,0.00
2013-10-1,82,64,49,59,52,46,92,69,33,30.09,29.97,17,2,23,0.00
2013-10-2,85,67,54,58,54,50,89,67,32,30.10,30.00,20,2,20,0.00
2013-10-3,83,67,54,61,57,50,92,73,41,30.15,30.03,9,0,10,0.00
2013-10-4,86,69,57,62,58,54,92,73,36,30.11,30.01,15,1,15,0.00
2013-10-5,86,73,64,63,60,56,85,67,37,30.11,29.99,14,1,16,0.00
2013-10-6,88,73,58,66,58,54,92,64,32,30.02,29.88,27,5,38,0.00
2013-10-7,74,64,47,65,55,40,88,72,46,30.09,29.72,26,6,32,0.61
2013-10-8,68,53,41,47,41,38,91,67,36,30.31,30.09,14,1,20,0.00
2013-10-9,61,52,42,50,43,36,92,73,40,30.36,30.26,9,1,14,0.06
2013-10-10,55,53,51,52,49,47,92,88,83,30.26,30.05,12,1,15,2.42
2013-10-11,60,56,53,57,54,51,92,92,92,30.05,29.99,9,1,14,1.46
2013-10-12,67,61,58,59,57,52,92,85,61,30.20,30.01,11,0,14,0.16
2013-10-13,59,58,57,56,55,54,92,91,88,30.34,30.19,6,0,8,0.33
2013-10-14,70,59,50,55,51,47,92,77,51,30.35,30.24,10,0,10,0.00
2013-10-15,71,57,48,59,49,45,92,79,42,30.26,30.09,11,0,11,0.01
2013-10-16,72,61,50,57,54,46,90,77,56,30.09,29.90,13,1,16,0.00
2013-10-17,68,60,55,61,54,44,92,81,57,29.91,29.70,24,2,27,0.09
2013-10-18,66,55,42,45,38,33,87,55,30,30.03,29.87,21,4,23,0.00
2013-10-19,63,50,39,53,43,36,92,79,52,30.02,29.77,22,2,23,0.05
2013-10-20,62,49,36,37,32,26,85,56,27,30.11,29.90,26,4,30,0.00
2013-10-21,68,50,32,44,35,29,92,62,27,30.17,29.93,23,3,30,0.00
2013-10-22,61,51,36,47,38,26,81,63,30,29.93,29.84,19,2,23,0.00
2013-10-23,49,42,36,37,33,30,89,72,50,29.93,29.72,18,2,21,0.00
2013-10-24,49,41,33,32,28,21,76,62,36,30.16,29.92,26,4,27,0.01
2013-10-25,52,40,29,31,26,22,81,60,35,30.34,30.16,25,5,26,0.01
2013-10-26,56,43,28,28,23,16,79,50,21,30.33,29.94,23,5,26,0.00
2013-10-27,59,46,32,34,28,24,81,52,27,30.16,29.97,18,3,22,0.00
2013-10-28,61,41,28,38,31,24,89,70,34,30.30,30.15,10,0,10,0.00
2013-10-29,62,43,30,42,34,27,91,72,35,30.43,30.29,8,0,9,0.00
2013-10-30,69,57,43,52,46,38,83,67,47,30.32,30.14,8,0,9,0.07
2013-10-31,69,62,57,56,54,52,85,74,57,30.16,29.71,25,4,38,0.02
2013-11-1,74,63,44,58,49,36,88,63,26,29.71,29.52,32,7,43,0.30
2013-11-2,64,50,39,48,39,31,92,67,35,29.91,29.67,24,4,27,0.00
2013-11-3,55,46,31,38,28,12,77,53,19,30.48,29.91,23,6,24,0.00
2013-11-4,44,34,23,26,21,16,82,61,33,30.67,30.48,14,1,14,0.00
2013-11-5,53,44,29,40,32,22,81,63,48,30.65,30.44,13,1,14,0.00
2013-11-6,68,58,44,47,44,38,86,61,43,30.45,30.01,24,7,29,0.00
2013-11-7,62,53,40,50,39,17,86,60,35,30.11,29.87,31,7,33,0.16
2013-11-8,49,40,27,26,20,15,74,47,26,30.34,30.10,32,5,34,0.00
2013-11-9,55,40,23,29,22,18,85,54,27,30.36,30.03,20,4,23,0.00
2013-11-10,58,47,37,32,24,20,59,41,24,30.26,29.99,32,8,36,0.00
2013-11-11,57,43,27,31,24,19,78,51,24,30.31,30.01,18,2,20,0.00
2013-11-12,52,37,24,34,19,8,77,48,30,30.44,29.99,32,10,33,0.00
2013-11-13,43,33,26,19,14,8,64,46,25,30.52,30.39,24,5,26,0.00
2013-11-14,58,36,22,20,13,2,72,44,11,30.39,30.23,14,2,18,0.00
2013-11-15,60,40,21,33,20,5,83,51,11,30.30,30.18,9,1,10,0.00
2013-11-16,58,49,38,47,42,32,89,78,58,30.32,30.21,13,3,21,0.03
2013-11-17,63,57,51,56,51,47,89,81,73,30.22,29.67,25,10,32,0.00
2013-11-18,65,58,48,55,28,14,79,36,15,29.95,29.66,39,11,48,0.14
2013-11-19,48,41,30,24,21,18,65,46,31,30.41,29.95,29,10,32,0.00
2013-11-20,46,33,21,27,17,8,84,55,23,30.58,30.40,12,1,14,0.00
2013-11-21,48,38,25,37,28,18,81,67,53,30.59,30.37,11,1,15,0.00
2013-11-22,60,51,44,48,42,36,80,70,57,30.36,30.03,23,1,23,0.00
2013-11-23,53,40,28,40,20,1,73,47,30,30.26,30.07,38,12,46,0.00
2013-11-24,30,25,19,5,1,-6,48,36,24,30.55,30.26,36,15,39,0.00
2013-11-25,37,27,14,8,3,-5,65,38,16,30.58,30.32,19,3,23,0.00
2013-11-26,36,33,31,31,23,4,90,69,26,30.32,29.65,10,1,14,1.31
2013-11-27,39,35,28,35,26,9,91,70,44,30.07,29.58,34,13,39,0.10
2013-11-28,36,30,25,20,12,5,69,47,33,30.48,30.07,28,8,32,0.00
2013-11-29,40,28,18,24,16,12,81,63,37,30.74,30.47,23,2,24,0.00
2013-11-30,35,26,14,20,14,9,83,62,43,30.74,30.38,13,2,16,0.00
2013-12-1,42,31,17,25,20,12,83,64,46,30.37,30.03,8,0,8,0.00
2013-12-2,44,38,34,31,28,25,76,67,54,30.03,29.89,6,0,8,0.00
2013-12-3,55,38,30,34,30,25,85,72,42,29.99,29.89,10,0,10,0.00
2013-12-4,56,43,29,47,36,25,90,77,53,30.10,29.98,8,0,10,0.00
2013-12-5,66,58,48,55,51,44,90,78,60,30.05,29.90,18,3,23,0.02
2013-12-6,58,45,36,56,41,33,92,88,83,30.21,29.86,22,5,26,1.67
2013-12-7,38,34,26,33,25,16,89,70,54,30.57,30.17,22,6,22,0.01
2013-12-8,28,25,23,25,19,13,87,77,63,30.62,30.34,4,0,6,0.72
2013-12-9,36,32,28,32,28,25,90,87,80,30.35,30.05,8,0,8,0.19
2013-12-10,36,31,28,32,23,9,92,74,43,30.24,30.01,23,3,27,0.29
2013-12-11,37,24,11,15,9,3,78,55,31,30.42,30.24,13,1,20,0.00
2013-12-12,32,24,15,20,4,-6,78,43,22,30.47,30.27,26,4,27,0.00
2013-12-13,40,24,8,17,7,-3,71,51,27,30.33,30.23,11,1,11,0.00
2013-12-14,35,31,25,31,26,17,90,81,70,30.34,29.76,11,1,16,0.18
2013-12-15,42,33,28,35,24,16,91,71,49,29.96,29.66,29,5,33,0.00
2013-12-16,35,31,28,21,19,15,70,61,53,30.20,29.96,18,2,21,0.00
2013-12-17,37,32,28,28,25,21,82,74,65,30.15,29.94,15,3,18,0.00
2013-12-18,38,30,19,25,17,13,85,60,42,30.24,30.02,23,5,24,0.00
2013-12-19,56,33,18,28,20,12,80,62,26,30.22,30.07,14,1,16,0.00
2013-12-20,54,42,31,33,28,24,80,60,34,30.10,29.97,12,1,16,0.00
2013-12-21,68,57,42,54,42,31,74,59,46,30.00,29.84,18,3,24,0.00
2013-12-22,69,64,54,60,54,48,89,72,48,29.98,29.76,29,6,34,0.19
2013-12-23,57,50,35,55,41,20,92,75,52,30.27,29.89,26,6,27,0.36
2013-12-24,37,30,19,24,13,0,68,50,29,30.51,30.24,33,8,34,0.00
2013-12-25,32,24,16,10,6,3,66,48,33,30.61,30.36,16,3,20,0.00
2013-12-26,45,32,24,20,13,9,62,46,27,30.38,30.24,26,3,40,0.00
2013-12-27,52,33,19,21,12,2,79,48,13,30.43,30.32,20,3,20,0.00
2013-12-28,59,41,26,23,18,14,68,42,18,30.34,30.11,17,3,20,0.00
2013-12-29,48,43,40,43,35,18,92,74,31,30.11,29.58,22,2,26,0.81
2013-12-30,46,38,27,36,25,15,71,60,51,30.20,29.83,22,5,29,0.00
2013-12-31,40,31,22,24,16,10,70,54,34,30.33,30.12,45,5,45,0.00
2014-1-1,48,33,21,24,19,11,75,59,30,30.42,30.12,12,1,14,0.00
2014-1-2,33,29,23,27,23,18,88,79,68,30.11,29.66,10,0,10,0.17